Change the Weather History Date:

Saturday, November 17, 2012

  Actual Average (KAQP) Record (KAQP)
Temperature  
Mean Temperature 44 °F -  
Max Temperature 57 °F 36 °F 66 °F (2001)
Min Temperature 32 °F 20 °F -2 °F (1997)
Degree Days  
Heating Degree Days 20    
Moisture  
Dew Point 33 °F    
Average Humidity 64    
Maximum Humidity 81    
Minimum Humidity 44    
Precipitation  
Precipitation 0.00 in - - ()
Sea Level Pressure  
Sea Level Pressure 30.06 in    
Wind  
Wind Speed 9 mph (SSE)    
Max Wind Speed 17 mph    
Max Gust Speed 24 mph    
Visibility 10 miles    
Events      
Averages and records for this station are not official NWS values.
T = Trace of Precipitation, MM = Missing Value Source: NWS Daily Summary

Daily Weather History Graph

Daily Weather History Graph

Search for Another Location

Airport or City:

Trip Planner

Search our weather history database for the weather conditions in past years. The results will help you decide how hot, cold, wet, or windy it might be!

Date:

Astronomy

Nov. 17, 2012 Rise Set
Actual Time 7:27 AM CST 4:53 PM CST
Civil Twilight 6:55 AM CST 5:25 PM CST
Nautical Twilight 6:19 AM CST 6:01 PM CST
Astronomical Twilight 5:44 AM CST 6:36 PM CST
Moon 11:13 AM CST (11/17) 9:05 PM CST (11/17)
Length of Visible Light 10h 30m
Length of Day
9h 25m
Waxing Crescent, 20% of the Moon is Illuminated
Nov 17
Waxing Crescent
Nov 20
First Quarter
Nov 28
Full
Dec 6
Last Quarter
Dec 13
New

Hourly Weather History & Observations

Time (CST) Temp. Windchill Dew Point Humidity Pressure Visibility Wind Dir Wind Speed Gust Speed Precip Events Conditions
12:13 AM 32.0 °F 26.4 °F 26.6 °F 80% 30.13 in 10.0 mi SSE 5.8 mph - N/A   Clear
12:34 AM 32.0 °F 24.8 °F 26.6 °F 80% 30.12 in 10.0 mi SSE 8.1 mph - N/A   Clear
12:53 AM 33.8 °F 27.0 °F 26.6 °F 75% 30.12 in 10.0 mi SSE 8.1 mph - N/A   Clear
1:14 AM 35.6 °F 29.9 °F 28.4 °F 75% 30.11 in 10.0 mi SSE 6.9 mph - N/A   Clear
1:34 AM 35.6 °F 29.9 °F 28.4 °F 75% 30.11 in 10.0 mi SSE 6.9 mph - N/A   Clear
1:53 AM 37.4 °F 32.1 °F 28.4 °F 70% 30.11 in 10.0 mi SSE 6.9 mph - N/A   Clear
2:14 AM 37.4 °F 31.4 °F 30.2 °F 75% 30.10 in 10.0 mi SSE 8.1 mph - N/A   Clear
2:34 AM 37.4 °F 32.8 °F 30.2 °F 75% 30.10 in 10.0 mi SSE 5.8 mph - N/A   Clear
2:54 AM 39.2 °F 34.2 °F 30.2 °F 70% 30.10 in 10.0 mi SSE 6.9 mph - N/A   Clear
3:14 AM 39.2 °F 34.2 °F 30.2 °F 70% 30.09 in 10.0 mi SE 6.9 mph - N/A   Clear
3:33 AM 37.4 °F 32.1 °F 30.2 °F 75% 30.09 in 10.0 mi SE 6.9 mph - N/A   Clear
3:54 AM 41.0 °F 37.1 °F 30.2 °F 65% 30.09 in 10.0 mi SSE 5.8 mph - N/A   Clear
4:14 AM 41.0 °F 36.4 °F 32.0 °F 70% 30.08 in 10.0 mi South 6.9 mph - N/A   Clear
4:33 AM 41.0 °F 36.4 °F 32.0 °F 70% 30.08 in 10.0 mi South 6.9 mph - N/A   Clear
4:54 AM 41.0 °F 36.4 °F 32.0 °F 70% 30.08 in 10.0 mi South 6.9 mph - N/A   Clear
5:13 AM 41.0 °F 38.0 °F 32.0 °F 70% 30.08 in 10.0 mi SSE 4.6 mph - N/A   Clear
5:34 AM 39.2 °F 35.9 °F 30.2 °F 70% 30.08 in 10.0 mi SE 4.6 mph - N/A   Clear
5:54 AM 39.2 °F 35.0 °F 30.2 °F 70% 30.08 in 10.0 mi SSE 5.8 mph - N/A   Clear
6:13 AM 37.4 °F 32.8 °F 30.2 °F 75% 30.08 in 10.0 mi SSE 5.8 mph - N/A   Clear
6:34 AM 35.6 °F 30.7 °F 30.2 °F 81% 30.08 in 10.0 mi ESE 5.8 mph - N/A   Clear
6:53 AM 33.8 °F 29.6 °F 28.4 °F 81% 30.09 in 10.0 mi ESE 4.6 mph - N/A   Clear
7:14 AM 35.6 °F 30.7 °F 28.4 °F 75% 30.08 in 10.0 mi SSE 5.8 mph - N/A   Clear
7:34 AM 33.8 °F 29.6 °F 28.4 °F 81% 30.09 in 10.0 mi ESE 4.6 mph - N/A   Clear
7:53 AM 35.6 °F 29.2 °F 30.2 °F 81% 30.09 in 10.0 mi SE 8.1 mph - N/A   Clear
8:14 AM 35.6 °F 29.2 °F 30.2 °F 81% 30.09 in 10.0 mi SE 8.1 mph - N/A   Clear
8:33 AM 37.4 °F 31.4 °F 30.2 °F 75% 30.09 in 10.0 mi SE 8.1 mph - N/A   Clear
8:54 AM 39.2 °F 35.0 °F 32.0 °F 75% 30.09 in 10.0 mi SE 5.8 mph - N/A   Clear
9:14 AM 42.8 °F 38.6 °F 33.8 °F 70% 30.09 in 10.0 mi SE 6.9 mph - N/A   Clear
9:34 AM 44.6 °F 40.7 °F 33.8 °F 66% 30.09 in 10.0 mi South 6.9 mph - N/A   Clear
9:54 AM 50.0 °F - 33.8 °F 54% 30.10 in 10.0 mi South 13.8 mph 19.6 mph N/A   Clear
10:14 AM 53.6 °F - 35.6 °F 51% 30.10 in 10.0 mi SSW 13.8 mph 20.7 mph N/A   Clear
10:34 AM 51.8 °F - 33.8 °F 50% 30.10 in 10.0 mi SSW 12.7 mph 21.9 mph N/A   Clear
10:54 AM 53.6 °F - 33.8 °F 47% 30.10 in 10.0 mi South 13.8 mph 20.7 mph N/A   Clear
11:14 AM 51.8 °F - 33.8 °F 50% 30.09 in 10.0 mi South 11.5 mph 18.4 mph N/A   Clear
11:34 AM 53.6 °F - 33.8 °F 47% 30.08 in 10.0 mi South 13.8 mph - N/A   Clear
11:54 AM 55.4 °F - 33.8 °F 44% 30.07 in 10.0 mi South 17.3 mph 24.2 mph N/A   Clear
12:14 PM 55.4 °F - 35.6 °F 47% 30.06 in 10.0 mi South 11.5 mph - N/A   Clear
12:34 PM 57.2 °F - 35.6 °F 44% 30.05 in 10.0 mi South 13.8 mph 19.6 mph N/A   Clear
12:53 PM 57.2 °F - 35.6 °F 44% 30.05 in 10.0 mi South 17.3 mph 20.7 mph N/A   Clear
1:14 PM 57.2 °F - 35.6 °F 44% 30.04 in 10.0 mi South 12.7 mph 20.7 mph N/A   Clear
1:33 PM 57.2 °F - 35.6 °F 44% 30.04 in 10.0 mi South 13.8 mph 19.6 mph N/A   Clear
1:54 PM 57.2 °F - 35.6 °F 44% 30.03 in 10.0 mi South 16.1 mph 20.7 mph N/A   Clear
2:14 PM 55.4 °F - 35.6 °F 47% 30.03 in 10.0 mi SSE 13.8 mph - N/A   Clear
2:33 PM 55.4 °F - 35.6 °F 47% 30.03 in 10.0 mi SSE 13.8 mph - N/A   Clear
2:54 PM 55.4 °F - 35.6 °F 47% 30.02 in 10.0 mi SSE 8.1 mph - N/A   Clear
3:14 PM 55.4 °F - 35.6 °F 47% 30.02 in 10.0 mi SSE 9.2 mph - N/A   Clear
3:33 PM 55.4 °F - 35.6 °F 47% 30.03 in 10.0 mi South 11.5 mph - N/A   Clear
3:54 PM 55.4 °F - 35.6 °F 47% 30.03 in 10.0 mi SSE 9.2 mph - N/A   Clear
4:14 PM 53.6 °F - 35.6 °F 51% 30.03 in 10.0 mi SSE 5.8 mph - N/A   Clear
4:33 PM 53.6 °F - 35.6 °F 51% 30.02 in 10.0 mi SSE 9.2 mph - N/A   Clear
4:54 PM 53.6 °F - 35.6 °F 51% 30.02 in 10.0 mi South 15.0 mph - N/A   Clear
5:14 PM 53.6 °F - 35.6 °F 51% 30.03 in 10.0 mi SSE 12.7 mph 21.9 mph N/A   Clear
5:34 PM 53.6 °F - 35.6 °F 51% 30.04 in 10.0 mi South 12.7 mph 20.7 mph N/A   Clear
6:14 PM 48.2 °F - 35.6 °F 62% 30.04 in 10.0 mi SSE 9.2 mph - N/A   Clear
6:34 PM 48.2 °F - 35.6 °F 62% 30.04 in 10.0 mi SSE 9.2 mph - N/A   Scattered Clouds
6:54 PM 46.4 °F 42.4 °F 35.6 °F 66% 30.05 in 10.0 mi SE 8.1 mph - N/A   Clear
7:13 PM 46.4 °F 42.4 °F 33.8 °F 62% 30.05 in 10.0 mi SE 8.1 mph - N/A   Clear
7:34 PM 44.6 °F 39.7 °F 33.8 °F 66% 30.04 in 10.0 mi SE 9.2 mph - N/A   Scattered Clouds
7:54 PM 44.6 °F 39.7 °F 33.8 °F 66% 30.04 in 10.0 mi SE 9.2 mph - N/A   Clear
8:13 PM 44.6 °F 38.8 °F 33.8 °F 66% 30.04 in 10.0 mi SE 11.5 mph - N/A   Clear
8:34 PM 44.6 °F 38.8 °F 33.8 °F 66% 30.04 in 10.0 mi SE 11.5 mph - N/A   Clear
8:54 PM 42.8 °F 36.6 °F 33.8 °F 70% 30.04 in 10.0 mi SE 11.5 mph - N/A   Clear
9:14 PM 42.8 °F 36.6 °F 33.8 °F 70% 30.04 in 10.0 mi SE 11.5 mph - N/A   Clear
9:34 PM 42.8 °F 36.6 °F 33.8 °F 70% 30.03 in 10.0 mi SE 11.5 mph - N/A   Clear
9:54 PM 42.8 °F 36.2 °F 33.8 °F 70% 30.02 in 10.0 mi SE 12.7 mph - N/A   Clear
10:14 PM 41.0 °F 34.3 °F 33.8 °F 76% 30.02 in 10.0 mi SE 11.5 mph - N/A   Clear
10:34 PM 41.0 °F 34.3 °F 33.8 °F 76% 30.01 in 10.0 mi SE 11.5 mph - N/A   Clear
10:53 PM 39.2 °F 32.0 °F 33.8 °F 81% 30.01 in 10.0 mi SE 11.5 mph - N/A   Clear
11:14 PM 39.2 °F 32.0 °F 33.8 °F 81% 30.01 in 10.0 mi SE 11.5 mph - N/A   Clear
11:34 PM 39.2 °F 33.0 °F 32.0 °F 75% 30.01 in 10.0 mi SE 9.2 mph - N/A   Clear
11:53 PM 39.2 °F 32.5 °F 32.0 °F 75% 30.01 in 10.0 mi SE 10.4 mph - N/A   Clear